Wind_Speed
7 6 5 4 2 1 2 3 4 4 5 7 8 8 9 10 10 11 11 12 12 12 13 13 13 12 11 10 9 8 8 7 7 7 7 7 7 8 9 10 11 12 13
9 7 6 6 4 3 2 3 3 4 5 6 7 8 8 9 9 10 10 11 11 12 12 13 13 12 11 11 10 9 9 9 9 9 9 9 9 10 10 11 12 13 14
10 9 8 7 6 5 4 4 4 4 5 5 6 7 8 8 9 9 9 10 11 11 12 12 12 12 12 12 12 11 11 12 12 12 12 12 12 12 13 13 14 15 16
11 10 10 9 8 7 6 5 5 5 5 6 6 7 8 9 9 9 10 10 11 12 12 12 13 13 13 13 13 13 14 14 15 15 15 15 15 15 16 16 17 17 18
12 12 11 10 10 9 8 7 6 6 6 7 7 8 9 10 10 10 11 12 12 13 13 13 13 14 14 15 15 15 16 17 17 17 17 17 18 19 19 20 20 21 21
13 12 12 12 11 10 9 8 8 8 8 8 9 10 10 11 12 12 13 13 14 14 14 15 15 16 17 17 17 18 19 20 20 20 20 21 21 21 21 23 24 24 24
14 14 13 13 12 11 11 10 10 10 10 10 10 11 12 12 13 14 15 16 16 16 16 16 17 18 19 20 20 21 22 22 22 23 23 24 24 23 24 25 26 27 27
15 14 14 14 13 13 12 12 12 12 12 12 12 13 13 14 15 16 17 17 18 18 18 19 20 21 22 22 23 24 25 25 26 26 26 26 26 26 27 27 28 29 30
16 15 15 15 15 14 14 14 14 13 14 14 14 15 15 16 17 18 19 19 20 20 21 21 23 24 25 25 26 27 27 28 28 28 28 28 28 29 30 30 31 31 32
17 16 16 16 16 16 16 16 16 16 15 16 17 17 17 18 19 20 21 21 22 23 24 25 26 27 27 28 29 29 30 30 31 30 30 30 31 31 32 33 34 34 34
18 18 18 17 17 17 17 17 18 18 18 18 19 19 20 21 21 22 23 24 25 26 26 27 28 29 30 30 31 31 32 32 33 33 33 33 33 34 35 36 37 37 37
19 19 19 19 19 19 19 19 20 20 20 21 21 22 22 24 25 26 26 27 28 29 29 30 30 31 32 33 34 34 34 35 35 35 35 35 35 36 37 38 38 38 38
21 21 21 21 21 21 21 21 22 22 23 23 24 25 26 27 28 29 29 30 31 32 32 32 33 33 34 35 35 36 36 36 37 37 37 37 37 37 38 39 39 39 40
23 23 23 23 23 23 23 24 24 25 25 26 27 28 28 29 30 31 32 33 34 34 35 35 35 36 36 37 37 37 38 38 38 38 38 38 39 39 40 41 41 42 42
25 25 25 25 25 25 26 26 27 27 28 29 30 30 31 32 33 34 35 35 36 37 37 37 37 38 38 38 39 39 40 40 40 40 40 41 41 42 43 44 45 45 46
27 27 27 27 28 28 28 29 29 30 31 32 32 33 34 35 36 36 37 38 39 39 39 39 40 40 40 40 41 41 42 42 42 42 43 43 44 45 46 47 48 49 50
29 29 29 30 30 30 31 31 32 33 34 34 35 36 36 37 38 39 40 40 41 41 41 42 42 42 43 43 43 44 44 44 44 45 46 47 48 49 50 51 52 53 54
31 31 31 32 32 33 33 34 35 35 36 37 38 38 39 40 41 42 42 43 43 43 43 44 44 45 45 46 46 46 46 47 47 48 49 50 51 53 54 55 56 57 57
33 33 34 34 35 36 36 37 38 38 39 39 40 41 42 43 43 44 44 44 45 45 46 46 47 48 48 48 48 49 49 50 51 52 53 53 55 56 57 58 59 60 60
35 35 36 37 38 38 39 40 40 41 41 42 43 44 45 45 45 46 46 46 47 48 49 49 50 50 50 51 51 51 52 53 54 55 56 57 59 60 61 61 62 62 62
37 38 39 39 40 41 42 42 43 44 44 45 46 46 47 48 48 48 48 49 50 50 51 51 52 52 53 53 54 54 55 57 58 59 60 61 62 62 62 62 62 62 62
39 40 41 42 43 43 44 45 46 47 47 48 49 49 50 50 50 51 51 52 52 52 53 53 53 54 54 55 56 57 58 59 60 61 62 62 62 62 62 62 62 62 62
42 43 44 45 45 46 47 48 49 50 50 51 52 52 52 52 52 53 53 54 54 55 55 55 56 56 57 58 59 60 61 62 63 63 63 63 63 63 62 62 62 62 61
45 45 46 47 48 49 50 50 51 52 53 53 53 54 54 54 54 55 55 56 56 57 57 58 58 59 60 61 62 63 63 64 64 64 63 63 63 63 63 63 63 62 61
48 48 49 50 51 51 52 52 53 54 54 55 55 55 56 56 57 57 57 57 58 59 59 60 61 62 62 63 64 64 65 65 64 64 64 64 64 63 63 63 62 60 58
50 51 52 52 53 53 54 54 55 55 55 56 56 57 57 58 58 59 59 60 60 61 61 62 63 64 64 64 64 65 64 64 64 64 64 65 64 64 63 61 59 57 55
Wind_Direction
216 220 222 228 241 277 317 347 0 7 13 19 22 23 24 26 26 29 29 30 29 26 23 21 22 23 21 17 12 8 3 355 348 343 334 325 313 299 287 285 284 279 276
221 225 229 234 241 257 285 316 336 347 357 6 12 15 15 15 16 19 23 22 20 18 15 14 14 14 13 8 4 358 353 346 339 331 325 320 312 306 297 292 288 285 282
223 228 232 236 241 251 268 293 316 326 338 347 355 360 0 1 3 5 5 5 4 3 2 2 1 1 360 357 351 346 341 337 332 325 318 314 308 303 296 291 288 287 285
226 231 235 238 243 251 262 277 298 311 323 331 335 339 342 344 347 349 348 346 346 345 346 347 348 349 348 344 341 337 332 326 321 317 312 308 304 301 296 291 288 286 285
230 235 238 240 245 252 260 271 284 298 310 318 322 323 327 330 333 335 335 334 334 333 333 333 334 335 336 334 333 331 328 323 318 313 310 307 302 299 295 291 289 287 285
231 236 239 243 248 254 261 269 278 289 298 306 313 317 320 322 324 326 326 325 325 325 326 326 324 325 326 324 324 324 323 320 316 312 309 306 301 297 296 293 290 288 286
233 238 241 246 251 256 261 268 276 283 289 296 304 310 313 316 319 321 322 322 322 320 319 319 318 319 319 318 317 317 318 317 314 311 308 305 302 298 297 296 292 288 286
236 241 244 248 253 257 262 268 275 280 286 291 297 302 307 310 313 315 317 318 318 317 316 316 315 316 315 314 314 314 315 315 313 310 307 304 301 299 299 298 295 290 287
239 243 247 251 255 258 263 268 274 279 284 289 294 298 302 305 307 310 311 314 314 313 313 313 312 311 311 311 310 311 311 311 312 309 306 304 302 302 301 299 297 294 290
241 244 249 253 256 260 264 268 273 277 282 287 291 294 298 300 303 306 308 310 311 311 310 310 310 310 309 308 308 308 309 310 310 308 305 304 303 303 302 299 298 296 292
245 249 253 256 258 261 265 269 273 277 281 286 289 293 295 298 301 303 305 307 308 308 308 308 308 308 308 308 308 307 308 308 307 305 303 302 301 301 300 299 298 297 294
249 252 255 258 261 263 266 270 274 277 281 286 289 292 294 295 298 301 303 304 305 306 306 307 307 307 307 307 307 307 307 307 306 305 303 302 301 301 300 298 298 296 294
252 254 256 259 263 265 268 272 275 278 282 286 288 291 293 295 297 300 302 303 304 305 306 306 306 306 306 306 306 306 306 306 305 304 302 302 301 301 301 299 298 297 296
254 256 258 261 264 267 269 273 276 279 282 286 289 291 293 295 297 299 301 302 303 304 305 305 305 305 305 304 305 304 304 304 303 303 302 302 302 302 301 300 298 298 297
256 258 259 262 265 268 271 274 277 280 284 287 289 291 293 295 296 298 299 300 301 302 302 302 303 303 303 303 303 303 302 302 302 302 302 301 301 301 301 300 299 298 297
259 260 262 265 267 270 273 276 278 281 284 287 289 291 293 295 296 297 298 299 300 300 300 300 301 301 301 301 302 302 301 301 301 300 301 301 300 300 300 301 300 298 297
261 263 264 266 269 271 274 277 280 282 285 287 289 291 292 294 295 297 297 298 298 299 299 300 300 300 300 300 301 301 301 300 300 300 300 301 300 300 301 301 301 299 298
262 264 266 268 270 272 275 278 281 283 285 287 289 290 292 293 295 296 296 297 297 298 299 299 299 300 300 300 300 300 300 300 300 300 300 300 301 301 301 301 301 300 298
263 265 267 269 271 274 276 279 281 283 285 287 289 290 292 293 294 294 295 296 296 297 298 298 299 299 299 299 299 299 300 300 300 300 300 301 301 301 301 301 300 300 299
266 267 269 271 273 275 277 279 281 283 285 287 288 290 291 292 293 293 294 295 296 296 296 297 297 298 298 298 299 299 299 300 300 300 300 301 301 300 300 300 300 299 299
267 269 271 272 274 276 278 280 281 283 285 286 288 289 290 291 292 293 293 294 294 295 296 296 296 297 297 298 298 298 299 299 300 300 300 300 300 300 300 300 300 300 300
270 271 272 274 275 277 279 280 282 283 284 286 287 288 289 290 291 291 292 292 293 294 294 295 296 296 297 297 298 298 298 299 299 299 299 300 300 299 300 300 300 300 300
272 273 274 275 277 278 279 281 282 283 285 286 287 288 289 289 290 290 291 292 292 293 294 294 295 296 296 297 297 298 298 298 298 299 299 299 299 300 300 300 300 300 299
273 274 275 277 278 279 280 282 283 284 285 286 287 287 288 288 289 290 290 291 292 293 293 294 295 295 296 296 297 297 297 298 298 298 298 299 299 299 300 300 299 299 298
274 275 276 278 279 280 281 282 283 284 284 285 286 287 287 288 289 289 290 291 292 293 293 293 294 295 296 296 296 297 297 297 297 297 298 298 299 299 299 299 298 298 297
275 276 277 279 280 281 282 282 283 283 284 285 286 286 287 287 288 289 290 291 292 293 293 293 294 295 296 296 296 296 297 296 296 297 297 298 298 298 298 297 297 296 295
Height
5881 5882 5883 5884 5885 5885 5885 5885 5884 5884 5883 5882 5881 5880 5879 5878 5877 5875 5874 5873 5872 5871 5870 5868 5867 5866 5865 5864 5864 5863 5862 5862 5861 5861 5861 5860 5860 5860 5861 5861 5861 5862 5862
5880 5881 5882 5883 5884 5884 5884 5884 5884 5883 5883 5882 5881 5881 5880 5879 5877 5876 5875 5874 5873 5871 5870 5869 5868 5867 5866 5865 5864 5863 5862 5861 5860 5860 5859 5859 5858 5858 5858 5858 5858 5859 5859
5878 5880 5881 5882 5883 5883 5883 5884 5883 5883 5882 5882 5881 5880 5880 5879 5878 5876 5875 5874 5873 5872 5870 5869 5868 5867 5866 5864 5863 5862 5861 5860 5859 5858 5857 5856 5856 5855 5855 5855 5855 5855 5855
5876 5878 5879 5880 5881 5882 5882 5882 5882 5882 5882 5881 5880 5880 5879 5878 5877 5876 5875 5873 5872 5871 5869 5868 5867 5866 5865 5863 5862 5860 5859 5857 5856 5854 5853 5852 5852 5851 5851 5850 5850 5850 5850
5874 5875 5877 5878 5879 5880 5880 5881 5881 5881 5880 5880 5879 5878 5878 5877 5875 5874 5873 5871 5870 5869 5868 5866 5865 5864 5863 5861 5860 5858 5856 5854 5851 5850 5849 5848 5847 5846 5845 5844 5844 5844 5844
5871 5873 5874 5876 5877 5877 5878 5879 5879 5879 5879 5878 5877 5877 5876 5874 5873 5872 5870 5869 5867 5866 5865 5864 5862 5861 5860 5858 5856 5854 5852 5849 5847 5845 5843 5842 5840 5839 5838 5837 5837 5836 5836
5868 5870 5871 5873 5874 5875 5876 5876 5876 5876 5876 5876 5875 5874 5873 5872 5871 5869 5867 5865 5864 5862 5861 5860 5859 5858 5856 5854 5852 5850 5847 5844 5841 5839 5837 5835 5833 5832 5831 5830 5828 5828 5827
5865 5867 5868 5870 5871 5872 5872 5873 5873 5873 5873 5873 5872 5871 5870 5869 5868 5866 5864 5862 5860 5859 5857 5856 5855 5853 5851 5849 5847 5845 5842 5839 5835 5832 5830 5827 5826 5824 5823 5821 5820 5819 5818
5861 5863 5865 5866 5867 5868 5869 5869 5870 5870 5870 5870 5869 5868 5867 5865 5864 5862 5861 5859 5857 5855 5853 5852 5850 5848 5846 5844 5842 5839 5836 5833 5829 5825 5822 5819 5818 5816 5814 5812 5811 5809 5808
5858 5859 5861 5862 5863 5864 5865 5865 5866 5866 5866 5865 5865 5864 5863 5861 5860 5858 5856 5855 5853 5851 5849 5847 5844 5842 5840 5837 5835 5832 5830 5826 5823 5819 5816 5813 5810 5808 5805 5803 5801 5799 5797
5853 5855 5856 5858 5859 5860 5860 5861 5861 5861 5861 5861 5860 5859 5858 5856 5855 5853 5851 5849 5847 5845 5843 5841 5838 5836 5833 5831 5828 5825 5822 5819 5815 5811 5808 5805 5802 5799 5796 5793 5790 5788 5786
5849 5850 5852 5853 5854 5855 5855 5856 5856 5856 5856 5855 5854 5853 5852 5851 5849 5847 5845 5843 5841 5839 5836 5834 5831 5829 5826 5823 5820 5817 5814 5810 5807 5803 5800 5796 5793 5790 5787 5783 5780 5777 5774
5843 5845 5846 5847 5848 5849 5850 5850 5850 5850 5850 5849 5848 5847 5846 5844 5842 5840 5838 5836 5834 5831 5829 5826 5824 5821 5818 5815 5812 5808 5805 5801 5798 5794 5790 5787 5784 5780 5777 5774 5770 5767 5764
5838 5839 5840 5841 5842 5843 5843 5844 5844 5843 5843 5842 5841 5840 5839 5837 5835 5833 5831 5828 5826 5823 5821 5818 5815 5812 5809 5806 5803 5799 5796 5792 5788 5784 5781 5777 5774 5770 5767 5763 5760 5757 5754
5831 5832 5833 5835 5835 5836 5836 5836 5836 5836 5835 5835 5833 5832 5831 5829 5827 5825 5822 5820 5817 5815 5812 5809 5806 5803 5800 5796 5793 5789 5786 5782 5778 5774 5770 5767 5763 5760 5756 5752 5748 5744 5741
5824 5825 5826 5827 5828 5828 5829 5829 5828 5828 5827 5826 5825 5823 5821 5820 5817 5815 5813 5810 5807 5805 5802 5799 5796 5793 5789 5786 5782 5779 5775 5771 5767 5763 5760 5756 5752 5748 5744 5739 5734 5730 5726
5816 5817 5818 5819 5820 5820 5820 5820 5820 5819 5818 5816 5815 5813 5812 5809 5807 5805 5802 5800 5797 5794 5791 5788 5785 5781 5778 5774 5771 5767 5763 5759 5755 5751 5747 5743 5739 5734 5730 5725 5720 5715 5710
5808 5809 5810 5810 5811 5811 5811 5810 5810 5809 5808 5806 5805 5803 5801 5799 5796 5793 5791 5788 5785 5782 5779 5776 5772 5769 5765 5762 5758 5754 5750 5746 5742 5738 5733 5729 5724 5719 5714 5709 5703 5698 5692
5799 5799 5800 5800 5801 5801 5800 5800 5799 5798 5797 5796 5794 5792 5789 5787 5784 5782 5779 5776 5773 5770 5767 5763 5760 5756 5752 5748 5744 5740 5736 5732 5727 5723 5718 5713 5708 5703 5697 5692 5686 5679 5673
5788 5789 5789 5790 5790 5790 5789 5788 5787 5786 5785 5784 5782 5780 5777 5774 5772 5769 5766 5763 5760 5757 5753 5750 5746 5742 5738 5734 5730 5726 5721 5717 5712 5707 5702 5696 5691 5685 5679 5673 5667 5660 5654
5777 5778 5778 5778 5778 5778 5777 5776 5775 5774 5772 5771 5769 5766 5764 5761 5759 5756 5753 5750 5746 5743 5739 5735 5731 5727 5723 5719 5714 5710 5705 5700 5695 5690 5685 5679 5673 5667 5660 5654 5647 5641 5634
5766 5766 5766 5766 5766 5765 5764 5763 5762 5760 5759 5757 5755 5752 5750 5747 5744 5741 5738 5735 5731 5728 5724 5720 5716 5712 5707 5702 5698 5693 5688 5683 5677 5672 5666 5660 5654 5647 5641 5635 5629 5622 5616
5753 5753 5753 5753 5752 5751 5750 5749 5747 5746 5744 5742 5739 5737 5734 5732 5729 5726 5722 5719 5715 5711 5707 5703 5699 5695 5690 5685 5680 5675 5670 5664 5659 5653 5647 5641 5635 5629 5622 5616 5610 5603 5597
5740 5739 5739 5738 5737 5737 5735 5734 5732 5730 5728 5726 5723 5721 5718 5716 5713 5709 5706 5702 5698 5694 5690 5686 5682 5677 5673 5667 5662 5656 5651 5645 5639 5633 5627 5621 5616 5610 5603 5597 5591 5584 5578
5726 5725 5724 5723 5722 5721 5720 5718 5716 5714 5712 5709 5707 5704 5701 5698 5695 5692 5688 5684 5680 5677 5672 5668 5663 5659 5654 5648 5643 5637 5631 5625 5619 5613 5607 5602 5596 5590 5584 5578 5572 5566 5560
5710 5709 5709 5707 5706 5704 5703 5701 5699 5697 5695 5692 5690 5687 5684 5680 5677 5673 5670 5666 5662 5658 5654 5649 5644 5639 5634 5629 5623 5617 5611 5605 5600 5594 5588 5582 5576 5571 5564 5559 5553 5548 5543